KI4RPM Weather Reports


time (UTC)temp
C
wind
direction
speed
KPH
gust
KPH
rain 1hr
cm
rain 24hr
cm
rain mn
cm
humidity
%
barometer
mb
20260906060014 22 192 0.0 0.0 0.00 0.00 0.00 94 796.1
20260906054514 22 191 0.0 0.0 0.00 0.00 0.00 94 796.1
20260906053002 21 191 0.0 0.0 0.00 0.00 0.00 94 796.1
20260906051554 21 192 0.0 0.0 0.00 0.00 0.00 94 796.1
20260906050047 22 191 0.0 0.0 0.00 0.00 0.00 94 796.1
20260906044542 22 192 0.0 0.0 0.00 0.00 0.00 94 796.1
20260906043030 22 192 0.0 0.0 0.00 0.00 0.00 94 796.1
20260906041543 22 192 0.0 0.0 0.00 0.00 0.00 94 796.1
20260906040023 22 192 0.0 0.0 0.00 0.00 0.00 94 796.1
20260906034523 22 192 0.0 0.0 0.00 0.00 0.00 94 796.1
20260906033023 22 191 0.0 0.0 0.00 0.00 0.00 94 796.1
20260906031524 22 191 0.0 0.0 0.00 0.00 0.00 94 796.1
20260906030020 22 192 0.0 0.0 0.00 0.00 0.00 93 796.1
20260906024521 22 191 0.0 0.0 0.00 0.00 0.00 94 796.1
20260906023021 22 192 0.0 0.0 0.00 0.00 0.00 94 796.1
20260906021525 22 191 0.0 0.0 0.00 0.00 0.00 93 796.1
20260906020013 22 191 0.0 0.0 0.00 0.00 0.00 93 796.1
20260906014528 22 191 0.0 0.0 0.00 0.00 0.00 93 796.1
20260906013014 23 191 0.0 0.0 0.00 0.00 0.00 92 796.1
20260906011514 23 191 0.0 0.0 0.00 0.00 0.00 92 796.1
20260906010033 23 192 0.0 0.0 0.00 0.00 0.00 92 796.1
20260906004514 23 191 0.0 0.0 0.00 0.00 0.00 91 796.1
20260906003005 24 192 0.0 0.0 0.00 0.00 0.00 90 796.1
20260906001606 24 192 0.0 0.0 0.00 0.00 0.00 90 796.1
20260906000055 25 192 0.0 0.0 0.00 0.00 0.00 87 796.1
20260905234541 26 192 0.0 0.0 0.00 0.00 0.00 84 796.1
20260905233039 27 192 0.0 0.0 0.00 0.00 0.00 81 796.1
20260905231539 27 192 0.0 0.0 0.00 0.00 0.00 79 796.1
20260905230024 28 192 0.0 0.0 0.00 0.00 0.00 78 796.1
20260905224537 28 190 0.0 0.0 0.00 0.00 0.00 75 796.1
20260905181532 25 194 0.0 0.0 0.00 0.00 0.00 90 796.1
20260905180016 25 194 4.8 8.0 0.00 0.00 0.00 90 796.1
20260905174503 26 192 3.2 17.7 0.00 0.00 0.00 85 796.1
20260905173108 30 188 17.7 33.8 0.00 0.00 0.00 68 1066.2
20260905171550 33 236 3.2 17.7 0.00 0.00 0.00 64 1066.2
20260905170047 33 182 6.4 16.1 0.00 0.00 0.00 65 1066.2
20260905164526 33 186 0.0 12.9 0.00 0.00 0.00 69 1066.2
20260905163014 33 189 4.8 11.3 0.00 0.00 0.00 63 1066.2
20260905161506 33 192 0.0 9.7 0.00 0.00 0.00 65 1066.2
20260905160002 33 194 0.0 1.6 0.00 0.00 0.00 68 1066.2
20260905154603 32 198 0.0 1.6 0.00 0.00 0.00 66 1066.2
20260905153045 32 198 0.0 6.4 0.00 0.00 0.00 73 1066.2
20260905151549 32 198 0.0 0.0 0.00 0.00 0.00 73 1066.2
20260905150035 31 198 0.0 0.0 0.00 0.00 0.00 78 1066.2
20260905144530 31 198 0.0 0.0 0.00 0.00 0.00 79 1066.2
20260905143111 30 198 0.0 0.0 0.00 0.00 0.00 83 1066.2
20260905141555 28 198 0.0 0.0 0.00 0.00 0.00 84 1066.2
20260905140046 27 198 0.0 6.4 0.00 0.00 0.00 86 1066.2
20260905134525 27 198 0.0 1.6 0.00 0.00 0.00 87 1066.2
20260905133108 26 198 0.0 0.0 0.00 0.00 0.00 89 1066.2
20260905131625 26 198 0.0 9.7 0.00 0.00 0.00 90 1066.2
20260905130051 25 195 3.2 11.3 0.00 0.00 0.00 91 1066.2
20260905124536 24 192 3.2 9.7 0.00 0.00 0.00 93 1066.2
20260905123036 23 192 0.0 6.4 0.00 0.00 0.00 96 1066.2
20260905121527 22 192 0.0 0.0 0.00 0.00 0.00 96 1066.2
20260905120033 22 192 0.0 0.0 0.00 0.00 0.00 96 1066.2
20260905114521 21 192 0.0 0.0 0.00 0.00 0.00 95 1066.2
20260905113025 21 192 0.0 0.0 0.00 0.00 0.00 95 1066.2
20260905111520 21 192 0.0 0.0 0.00 0.00 0.00 95 1066.2
20260905110024 21 192 0.0 0.0 0.00 0.00 0.00 95 1066.2
20260905104524 21 192 0.0 0.0 0.00 0.00 0.00 95 1066.2
20260905103027 22 192 0.0 0.0 0.00 0.00 0.00 95 1066.2
20260905101624 22 192 0.0 0.0 0.00 0.00 0.00 95 1066.2
20260905100055 22 192 0.0 0.0 0.00 0.00 0.00 95 1066.2
20260905094550 22 192 0.0 0.0 0.00 0.00 0.00 95 1066.2
20260905093008 22 192 0.0 0.0 0.00 0.00 0.00 95 1066.2
20260905091540 22 192 0.0 0.0 0.00 0.00 0.00 95 1066.2
20260905090019 22 192 0.0 0.0 0.00 0.00 0.00 95 1066.2
20260905084518 22 192 0.0 0.0 0.00 0.00 0.00 95 1066.2
20260905083007 22 192 0.0 0.0 0.00 0.00 0.00 95 1066.2
20260905081556 22 192 0.0 0.0 0.00 0.00 0.00 95 1066.2
20260905080042 22 192 0.0 0.0 0.00 0.00 0.00 94 1066.2
20260905074539 22 192 0.0 0.0 0.00 0.00 0.00 94 1066.2
20260905073031 22 192 0.0 0.0 0.00 0.00 0.00 94 1066.2
20260905071510 22 192 0.0 0.0 0.00 0.00 0.00 94 1066.2
20260905070007 22 192 0.0 0.0 0.00 0.00 0.00 94 1066.2
20260905064605 22 192 0.0 0.0 0.00 0.00 0.00 94 1066.2
20260905063054 22 192 0.0 0.0 0.00 0.00 0.00 94 1066.2
20260905061541 22 192 0.0 0.0 0.00 0.00 0.00 94 1066.2